Location: Geroldsau
(48.7259°N, 8.2466°E)
Time: 18:29:39
(UTC+00:00)

FENGYUN 1C DEB - Pass Details

Date: 02 February 2022
Orbit: 833 x 1169 km, 98.6° (Epoch: 27 May)

Event Time Altitude Azimuth Distance (km) Brightness Sun altitude
Rises 19:18:01 0° 0° (N) 3,534 ? -28.4°
Reaches altitude 10° 19:22:14 10° 330° (NNW) 2,661 ? -29.1°
Maximum altitude 19:24:06 12° 311° (NW) 2,579 ? -29.4°
Drops below altitude 10° 19:26:01 10° 293° (WNW) 2,728 ? -29.7°
Sets 19:30:32 0° 263° (W) 3,761 ? -30.4°
